Lid_Strength_Index
2 3 4 6 10 11 16 14 10 11 10 7 6 7 8 7 9 12 2 1 0 0 -0 -1 -1 -1 -1 -1 -1 -1 -1 -1 -1 -1 -1 -1 -1 -1 -1 -1 -1 -1 -1 -1 -1 -1 -1 -1 -1
4 5 7 9 12 16 15 11 11 10 7 6 6 6 7 9 5 4 3 0 -0 -0 0 -0 -1 -1 -1 -1 -1 -1 -1 -2 -2 -2 -2 -2 -2 -2 -2 -2 -1 -1 -1 -2 -1 -2 -1 -1 -1
3 6 9 10 13 15 15 11 9 8 6 6 7 5 6 7 4 3 1 0 -0 0 -0 -0 -1 -1 -1 -1 -1 -1 -1 -1 -1 -1 -1 -1 -1 -1 -1 -1 -1 -1 -2 -2 -2 -2 -1 -1 -1
8 9 10 11 15 12 11 9 8 8 7 6 6 8 5 2 3 2 0 -0 0 0 -0 -1 -1 -1 -1 -1 -1 -1 -1 -1 -2 -2 -2 -2 -2 -2 -2 -2 -2 -2 -2 -2 -2 -2 -2 -2 -2
10 11 13 14 13 11 9 8 7 9 8 7 6 8 7 3 1 1 1 0 1 0 -0 -0 -1 -1 -1 -2 -2 -2 -2 -2 -2 -2 -2 -2 -2 -2 -2 -2 -2 -2 -2 -2 -2 -3 -3 -3 -3
11 12 14 15 12 10 8 7 7 8 7 7 7 8 7 2 2 1 0 0 -0 0 -0 -0 -1 -1 -2 -2 -2 -2 -2 -2 -2 -2 -2 -3 -3 -2 -2 -2 -2 -2 -2 -2 -2 -3 -3 -3 -3
12 13 15 15 12 11 9 6 8 8 8 8 5 9 6 4 2 1 1 0 -0 -0 -0 -0 -0 -1 -2 -2 -2 -2 -2 -3 -3 -2 -3 -3 -3 -3 -2 -3 -3 -2 -2 -2 -2 -3 -3 -2 -3
12 13 15 14 12 11 8 7 6 7 8 5 4 9 9 4 2 1 1 1 0 0 0 0 1 1 0 -0 -2 -2 -3 -3 -3 -3 -2 -2 -2 -2 -3 -2 -3 -2 -2 -3 -2 -2 -3 -2 -2
11 13 15 13 12 11 8 8 7 5 8 6 5 5 4 2 2 2 2 2 2 2 2 3 2 1 0 0 -1 -2 -2 -2 -2 -2 -2 -1 -1 -1 -1 -2 -2 -2 -2 -2 -2 -2 -2 -2 -2
12 14 13 10 10 11 8 7 7 7 8 7 6 4 3 3 3 3 4 3 3 3 3 3 2 2 2 1 0 -0 -1 -0 -1 -0 0 0 0 -1 -1 -1 -2 -2 -2 -2 -2 -2 -1 -0 1
13 13 11 9 8 9 7 7 7 8 10 7 7 6 4 4 4 4 3 3 3 3 3 4 3 2 3 3 2 1 0 -0 -0 0 1 1 1 1 0 1 1 1 -1 1 1 1 1 1 1
14 11 11 10 9 8 8 6 7 7 8 5 4 4 4 4 4 4 4 4 3 2 2 2 3 3 3 3 3 3 3 2 1 1 1 1 1 1 1 1 1 1 1 1 1 2 1 1 1
12 11 10 10 11 7 6 7 7 7 5 4 4 4 5 5 4 3 4 4 3 4 3 3 3 3 4 4 4 4 3 2 2 1 1 1 2 2 1 2 1 1 1 2 2 2 1 2 2
11 11 11 11 11 9 9 11 8 6 5 5 5 5 5 5 5 6 6 5 4 3 3 3 3 3 4 4 4 4 3 3 2 2 1 2 2 2 2 2 2 2 2 2 2 2 2 3 3
10 11 11 11 10 10 8 11 10 7 5 6 6 5 5 4 5 5 4 5 3 3 4 4 3 3 4 4 4 4 3 2 3 2 1 2 2 2 2 3 3 3 2 3 3 3 3 3 3
12 12 13 10 10 10 9 11 9 6 6 7 6 6 5 5 6 5 5 5 5 4 4 3 2 4 4 4 4 3 3 3 4 3 2 2 2 2 3 3 3 3 3 3 4 4 4 4 4
13 14 14 12 11 11 12 12 10 8 6 8 8 6 6 9 7 6 6 5 5 4 3 3 3 4 3 4 4 4 3 4 4 4 3 2 2 2 2 3 3 3 4 4 4 4 5 5 5
15 15 13 14 12 11 12 10 9 9 10 11 10 9 9 8 8 6 5 4 4 4 3 3 3 3 3 4 4 5 4 4 4 4 3 2 2 2 2 3 3 3 4 5 5 5 5 5 5
12 13 14 12 10 10 11 10 9 8 10 12 10 8 7 8 7 6 5 4 4 3 3 2 3 3 3 4 4 5 5 5 3 3 2 2 2 2 2 3 4 4 5 5 5 5 5 5 4
12 13 13 11 10 9 11 11 9 8 8 9 9 8 6 6 5 6 5 4 3 3 2 2 2 3 3 3 4 5 5 4 3 3 3 2 2 2 2 4 4 4 5 5 5 5 5 5 3
12 13 13 12 11 11 12 12 11 8 8 7 7 6 6 6 5 5 5 4 3 2 3 3 3 4 3 3 4 4 4 4 4 4 4 3 3 2 3 3 4 4 5 5 5 4 5 5 4
14 11 11 12 12 14 12 16 12 10 10 9 8 7 6 6 5 4 4 4 3 3 2 3 2 3 3 4 5 4 5 6 5 5 4 4 3 3 3 3 4 4 5 5 5 4 5 5 5
11 10 11 11 14 15 13 15 14 11 12 11 9 7 6 5 5 5 4 3 3 2 3 3 2 2 3 3 3 4 5 5 5 5 5 4 3 3 3 4 4 4 4 5 5 4 5 5 6
9 11 12 13 14 16 15 14 15 13 12 11 9 7 6 6 5 4 4 5 5 3 2 3 4 5 5 4 5 5 6 5 5 4 4 4 4 4 4 4 4 4 5 5 4 5 5 5 5
11 14 16 17 17 17 13 15 14 10 9 9 9 8 6 6 6 8 8 7 7 7 7 6 7 7 6 5 5 5 5 4 5 5 4 4 5 5 4 4 5 5 4 3 4 5 5 5 4
13 13 16 19 19 17 13 17 13 9 8 7 7 8 10 10 9 9 9 9 8 8 8 8 7 7 7 6 5 4 4 5 5 5 5 5 5 5 5 4 4 4 4 4 4 5 5 4 5
12 14 13 16 16 17 15 13 10 9 9 8 11 11 11 11 10 10 9 9 9 9 9 9 8 8 7 7 6 5 5 5 5 5 5 5 5 5 4 4 4 4 5 4 4 5 4 4 4
11 11 15 15 19 20 17 16 15 12 11 11 12 12 11 10 10 10 9 9 9 9 9 9 9 8 8 7 6 5 6 6 5 5 6 6 6 5 5 5 4 4 4 4 4 4 3 4 4
11 12 13 14 15 19 20 17 11 12 12 12 12 11 11 10 10 9 9 8 9 9 9 9 9 9 8 6 6 6 6 6 6 6 6 6 5 5 4 4 4 4 4 4 4 3 4 4 4
10 12 12 16 17 15 17 16 12 11 12 12 11 10 10 9 9 9 8 9 9 9 9 9 9 8 7 6 6 6 6 6 7 7 6 5 6 5 4 4 4 4 3 4 4 4 4 4 5